Genoa, Italy

10:46 AM CET on November 20, 2017 (GMT +0100)
Sestri

Weather History for LIMJ - May, 2014

Change the Weather History Date:

Wednesday, May 14, 2014

  Actual Average Record
Temperature  
Mean Temperature 64 °F -  
Max Temperature 76 °F 72 °F 86 °F (1997)
Min Temperature 53 °F 60 °F 53 °F (2012)
Growing Degree Days 14 (Base 50)    
Moisture  
Dew Point 27 °F    
Average Humidity 30    
Maximum Humidity 63    
Minimum Humidity 4    
Precipitation  
Precipitation 0.00 in 0.09 in - ()
Sea Level Pressure  
Sea Level Pressure 30.04 in    
Wind  
Wind Speed 7 mph ()    
Max Wind Speed 18 mph    
Max Gust Speed 31 mph    
Visibility 9.2 miles    
Events      
Averages and records for this station are not official NWS values.
T = Trace of Precipitation, MM = Missing Value Source: Averaged Metar Reports

Daily Weather History Graph

Daily Weather History Graph

Search for Another Location

Airport or City:

Trip Planner

Search our weather history database for the weather conditions in past years. The results will help you decide how hot, cold, wet, or windy it might be!

Date:

Astronomy

May. 14, 2014 Rise Set
Actual Time 5:58 AM CEST 8:43 PM CEST
Civil Twilight 5:25 AM CEST 9:17 PM CEST
Nautical Twilight 4:42 AM CEST 10:00 PM CEST
Astronomical Twilight 3:53 AM CEST 10:49 PM CEST
Moon 8:30 PM CEST (5/14) 5:47 AM CEST (5/14)
Length of Visible Light 15h 52m
Length of Day
14h 45m
Full, 100% of the Moon is Illuminated
May 14
Full
May 14
Full
May 21
Last Quarter
May 28
New
Jun 5
First Quarter

Hourly Weather History & Observations

Time (CEST) Temp. Dew Point Humidity Pressure Visibility Wind Dir Wind Speed Gust Speed Precip Events Conditions
12:20 AM 57.2 °F 44.6 °F 63% 29.98 in 6.2 mi Variable 2.3 mph - N/A   Scattered Clouds
12:50 AM 57.2 °F 39.2 °F 51% 29.98 in 6.2 mi ENE 4.6 mph - N/A   Scattered Clouds
1:20 AM 57.2 °F 39.2 °F 51% 29.98 in 6.2 mi NE 4.6 mph - N/A   Scattered Clouds
1:50 AM 57.2 °F 39.2 °F 51% 29.98 in 6.2 mi Variable 2.3 mph - N/A   Partly Cloudy
2:20 AM 55.4 °F 41.0 °F 58% 29.98 in 6.2 mi North 2.3 mph - N/A   Partly Cloudy
2:50 AM 57.2 °F 39.2 °F 51% 29.98 in 6.2 mi NE 3.5 mph - N/A   Partly Cloudy
3:20 AM 55.4 °F 37.4 °F 51% 30.01 in 6.2 mi Variable 2.3 mph - N/A   Partly Cloudy
3:50 AM 55.4 °F 39.2 °F 54% 30.01 in 6.2 mi NE 3.5 mph - N/A   Partly Cloudy
4:20 AM 55.4 °F 37.4 °F 51% 30.01 in 6.2 mi ESE 3.5 mph - N/A   Partly Cloudy
4:50 AM 53.6 °F 39.2 °F 58% 30.01 in - ESE 3.5 mph - N/A   Clear
5:20 AM 53.6 °F 41.0 °F 62% 30.01 in - Variable 1.2 mph - N/A   Clear
5:50 AM 53.6 °F 39.2 °F 58% 30.01 in - East 3.5 mph - N/A   Clear
6:20 AM 53.6 °F 37.4 °F 54% 30.04 in - Variable 2.3 mph - N/A   Clear
6:50 AM 55.4 °F 35.6 °F 47% 30.04 in - NE 4.6 mph - N/A   Clear
7:20 AM 57.2 °F 37.4 °F 48% 30.04 in - ESE 4.6 mph - N/A   Clear
7:50 AM 62.6 °F 39.2 °F 42% 30.04 in - Variable 1.2 mph - N/A   Clear
8:20 AM 62.6 °F 33.8 °F 34% 30.04 in - Variable 1.2 mph - N/A   Clear
8:50 AM 62.6 °F 28.4 °F 27% 30.06 in - Variable 5.8 mph - N/A   Clear
9:20 AM 68.0 °F 17.6 °F 15% 30.06 in - North 11.5 mph - N/A   Clear
9:50 AM 69.8 °F 15.8 °F 13% 30.06 in - NNW 8.1 mph - N/A   Clear
10:20 AM 69.8 °F 19.4 °F 15% 30.06 in - NW 12.7 mph - N/A   Clear
10:50 AM 69.8 °F 15.8 °F 13% 30.06 in - NNW 15.0 mph - N/A   Clear
11:00 AM 70 °F 18 °F 6% 30.07 in 19 mi NW 16.1 mph - -  
11:20 AM 71.6 °F 17.6 °F 13% 30.06 in - NW 12.7 mph - N/A   Clear
11:50 AM 71.6 °F 14.0 °F 11% 30.06 in - North 13.8 mph - N/A   Clear
12:20 PM 71.6 °F 12.2 °F 10% 30.06 in - North 16.1 mph 31.1 mph N/A   Clear
12:50 PM 73.4 °F 14.0 °F 10% 30.04 in - North 10.4 mph - N/A   Clear
1:20 PM 73.4 °F 17.6 °F 12% 30.04 in - North 13.8 mph - N/A   Clear
1:50 PM 73.4 °F 15.8 °F 11% 30.04 in - NNW 13.8 mph - N/A   Clear
2:00 PM 74 °F 17 °F 5% 30.06 in 19 mi North 11.5 mph - -   Scattered Clouds
2:20 PM 73.4 °F 15.8 °F 11% 30.04 in - NNW 17.3 mph - N/A   Clear
2:50 PM 75.2 °F 15.8 °F 11% 30.04 in - North 11.5 mph - N/A   Clear
3:20 PM 75.2 °F 17.6 °F 11% 30.04 in - North 8.1 mph - N/A   Clear
3:50 PM 75.2 °F 15.8 °F 11% 30.04 in - NW 11.5 mph - N/A   Clear
4:20 PM 71.6 °F 50.0 °F 46% 30.04 in - WSW 10.4 mph - N/A   Clear
4:50 PM 68.0 °F 51.8 °F 56% 30.04 in 6.2 mi WSW 15.0 mph - N/A   Partly Cloudy
5:00 PM 69 °F 52 °F 45% 30.05 in 19 mi WSW 12.7 mph - -   Scattered Clouds
5:20 PM 68.0 °F 51.8 °F 56% 30.04 in 6.2 mi WSW 11.5 mph - N/A   Partly Cloudy
5:50 PM 68.0 °F 51.8 °F 56% 30.04 in 6.2 mi West 10.4 mph - N/A   Partly Cloudy
6:20 PM 66.2 °F 51.8 °F 60% 30.04 in 6.2 mi WNW 9.2 mph - N/A   Scattered Clouds
6:50 PM 69.8 °F 44.6 °F 40% 30.04 in 6.2 mi Variable 3.5 mph - N/A   Scattered Clouds
7:20 PM 71.6 °F 15.8 °F 12% 30.04 in 6.2 mi North 12.7 mph - N/A   Scattered Clouds
7:50 PM 71.6 °F 12.2 °F 10% 30.04 in 6.2 mi North 10.4 mph - N/A   Scattered Clouds
8:00 PM 71 °F 14 °F 5% 30.06 in 19 mi North 9.2 mph - -   Scattered Clouds
8:20 PM 69.8 °F 14.0 °F 12% 30.06 in - North 9.2 mph - N/A   Clear
8:50 PM 69.8 °F 14.0 °F 12% 30.06 in - North 8.1 mph - N/A   Clear
9:20 PM 68.0 °F 12.2 °F 12% 30.06 in - North 8.1 mph - N/A   Clear
9:50 PM 68.0 °F 14.0 °F 12% 30.09 in - NNE 6.9 mph - N/A   Clear
10:20 PM 66.2 °F 12.2 °F 12% 30.06 in - North 15.0 mph - N/A   Clear
10:50 PM 66.2 °F 8.6 °F 11% 30.09 in - North 16.1 mph 31.1 mph N/A   Clear
11:00 PM 66 °F 10 °F 4% 30.10 in 19 mi North 15.0 mph - -  
11:20 PM 66.2 °F 8.6 °F 11% 30.09 in - North 16.1 mph 28.8 mph N/A   Clear
11:50 PM 66.2 °F 10.4 °F 11% 30.09 in - North 18.4 mph - N/A   Clear